Back to catalog

DELTA 1 DEB

AliveLEO
NORAD 9701·DEBRIS·🇺🇸 United States

Launched Nov 6, 1973 from Vandenberg Space Force Base

Loading…

Next Passes (next 24 hours)

TLE

FreshSource: Space-Track

Epoch: Sep 13, 2026, 04:59 UTC

1  9701U 73086FZ  26256.20797938  .00004198  00000-0  88575-2 0  9994
2  9701 102.7348 159.8564 0021554 102.7578  51.1183 13.31783696461950

Track DELTA 1 DEB in real time with AllMySat

Download on the App Store